Year,Month,Day,Hour,Minute,Value (Times are PST for temperature in C)
2018,08,22,00,00,15.30
2018,08,22,00,01,15.10
2018,08,22,00,02,15.00
2018,08,22,00,03,14.90
2018,08,22,00,04,14.80
2018,08,22,00,05,14.80
2018,08,22,00,06,14.70
2018,08,22,00,07,14.60
2018,08,22,00,08,14.60
2018,08,22,00,09,14.60
2018,08,22,00,10,14.60
2018,08,22,00,11,14.70
2018,08,22,00,12,14.80
2018,08,22,00,13,14.80
2018,08,22,00,14,14.90
2018,08,22,00,15,14.90
2018,08,22,00,16,14.90
2018,08,22,00,17,14.90
2018,08,22,00,18,14.90
2018,08,22,00,19,14.80
2018,08,22,00,20,14.80
2018,08,22,00,21,14.80
2018,08,22,00,22,14.70
2018,08,22,00,23,14.70
2018,08,22,00,24,14.70
2018,08,22,00,25,14.70
2018,08,22,00,26,14.80
2018,08,22,00,27,14.80
2018,08,22,00,28,14.80
2018,08,22,00,29,14.80
2018,08,22,00,30,14.90
2018,08,22,00,31,14.90
2018,08,22,00,32,14.90
2018,08,22,00,33,14.90
2018,08,22,00,34,14.90
2018,08,22,00,35,14.90
2018,08,22,00,36,14.90
2018,08,22,00,37,14.90
2018,08,22,00,38,14.90
2018,08,22,00,39,15.00
2018,08,22,00,40,15.10
2018,08,22,00,41,15.10
2018,08,22,00,42,15.20
2018,08,22,00,43,15.30
2018,08,22,00,44,15.30
2018,08,22,00,45,15.40
2018,08,22,00,46,15.50
2018,08,22,00,47,15.50
2018,08,22,00,48,15.60
2018,08,22,00,49,15.60
2018,08,22,00,50,15.60
2018,08,22,00,51,15.60
2018,08,22,00,52,15.60
2018,08,22,00,53,15.50
2018,08,22,00,54,15.50
2018,08,22,00,55,15.40
2018,08,22,00,56,15.40
2018,08,22,00,57,15.30
2018,08,22,00,58,15.30
2018,08,22,00,59,15.20
2018,08,22,01,00,15.20
2018,08,22,01,01,15.20
2018,08,22,01,02,15.20
2018,08,22,01,03,15.20
2018,08,22,01,04,15.10
2018,08,22,01,05,15.10
2018,08,22,01,06,15.20
2018,08,22,01,07,15.20
2018,08,22,01,08,15.20
2018,08,22,01,09,15.20
2018,08,22,01,10,15.20
2018,08,22,01,11,15.30
2018,08,22,01,12,15.40
2018,08,22,01,13,15.40
2018,08,22,01,14,15.50
2018,08,22,01,15,15.60
2018,08,22,01,16,15.70
2018,08,22,01,17,15.80
2018,08,22,01,18,16.00
2018,08,22,01,19,16.00
2018,08,22,01,20,16.10
2018,08,22,01,21,16.10
2018,08,22,01,22,16.10
2018,08,22,01,23,16.10
2018,08,22,01,24,16.30
2018,08,22,01,25,16.50
2018,08,22,01,26,16.70
2018,08,22,01,27,17.00
2018,08,22,01,28,17.10
2018,08,22,01,29,17.20
2018,08,22,01,30,17.30
2018,08,22,01,31,17.20
2018,08,22,01,32,17.10
2018,08,22,01,33,17.00
2018,08,22,01,34,16.90
2018,08,22,01,35,16.90
2018,08,22,01,36,16.90
2018,08,22,01,37,16.90
2018,08,22,01,38,16.90
2018,08,22,01,39,16.90
2018,08,22,01,40,16.80
2018,08,22,01,41,16.70
2018,08,22,01,42,16.70
2018,08,22,01,43,16.60
2018,08,22,01,44,16.60
2018,08,22,01,45,16.60
2018,08,22,01,46,16.60
2018,08,22,01,47,16.70
2018,08,22,01,48,16.70
2018,08,22,01,49,16.80
2018,08,22,01,50,16.90
2018,08,22,01,51,17.00
2018,08,22,01,52,17.10
2018,08,22,01,53,17.10
2018,08,22,01,54,17.20
2018,08,22,01,55,17.20
2018,08,22,01,56,17.20
2018,08,22,01,57,17.20
2018,08,22,01,58,17.20
2018,08,22,01,59,17.10
2018,08,22,02,00,17.10
2018,08,22,02,01,17.10
2018,08,22,02,02,17.00
2018,08,22,02,03,17.00
2018,08,22,02,04,16.90
2018,08,22,02,05,16.90
2018,08,22,02,06,16.80
2018,08,22,02,07,16.70
2018,08,22,02,08,16.70
2018,08,22,02,09,16.60
2018,08,22,02,10,16.50
2018,08,22,02,11,16.40
2018,08,22,02,12,16.40
2018,08,22,02,13,16.30
2018,08,22,02,14,16.20
2018,08,22,02,15,16.10
2018,08,22,02,16,16.10
2018,08,22,02,17,16.00
2018,08,22,02,18,15.90
2018,08,22,02,19,15.80
2018,08,22,02,20,15.80
2018,08,22,02,21,15.80
2018,08,22,02,22,15.70
2018,08,22,02,23,15.70
2018,08,22,02,24,15.70
2018,08,22,02,25,15.70
2018,08,22,02,26,15.70
2018,08,22,02,27,15.70
2018,08,22,02,28,15.80
2018,08,22,02,29,15.80
2018,08,22,02,30,15.90
2018,08,22,02,31,16.00
2018,08,22,02,32,16.10
2018,08,22,02,33,16.20
2018,08,22,02,34,16.30
2018,08,22,02,35,16.30
2018,08,22,02,36,16.40
2018,08,22,02,37,16.40
2018,08,22,02,38,16.40
2018,08,22,02,39,16.40
2018,08,22,02,40,16.40
2018,08,22,02,41,16.40
2018,08,22,02,42,16.40
2018,08,22,02,43,16.50
2018,08,22,02,44,16.50
2018,08,22,02,45,16.50
2018,08,22,02,46,16.60
2018,08,22,02,47,16.60
2018,08,22,02,48,16.60
2018,08,22,02,49,16.60
2018,08,22,02,50,16.60
2018,08,22,02,51,16.60
2018,08,22,02,52,16.60
2018,08,22,02,53,16.50
2018,08,22,02,54,16.50
2018,08,22,02,55,16.50
2018,08,22,02,56,16.40
2018,08,22,02,57,16.40
2018,08,22,02,58,16.40
2018,08,22,02,59,16.40
2018,08,22,03,00,16.40
2018,08,22,03,01,16.40
2018,08,22,03,02,16.40
2018,08,22,03,03,16.40
2018,08,22,03,04,16.40
2018,08,22,03,05,16.40
2018,08,22,03,06,16.40
2018,08,22,03,07,16.40
2018,08,22,03,08,16.40
2018,08,22,03,09,16.40
2018,08,22,03,10,16.40
2018,08,22,03,11,16.40
2018,08,22,03,12,16.40
2018,08,22,03,13,16.40
2018,08,22,03,14,16.40
2018,08,22,03,15,16.30
2018,08,22,03,16,16.30
2018,08,22,03,17,16.30
2018,08,22,03,18,16.20
2018,08,22,03,19,16.10
2018,08,22,03,20,16.00
2018,08,22,03,21,15.90
2018,08,22,03,22,15.80
2018,08,22,03,23,15.70
2018,08,22,03,24,15.70
2018,08,22,03,25,15.60
2018,08,22,03,26,15.60
2018,08,22,03,27,15.60
2018,08,22,03,28,15.50
2018,08,22,03,29,15.50
2018,08,22,03,30,15.50
2018,08,22,03,31,15.50
2018,08,22,03,32,15.50
2018,08,22,03,33,15.40
2018,08,22,03,34,15.40
2018,08,22,03,35,15.40
2018,08,22,03,36,15.40
2018,08,22,03,37,15.40
2018,08,22,03,38,15.50
2018,08,22,03,39,15.50
2018,08,22,03,40,15.50
2018,08,22,03,41,15.60
2018,08,22,03,42,15.60
2018,08,22,03,43,15.70
2018,08,22,03,44,15.60
2018,08,22,03,45,15.60
2018,08,22,03,46,15.70
2018,08,22,03,47,15.60
2018,08,22,03,48,15.60
2018,08,22,03,49,15.60
2018,08,22,03,50,15.60
2018,08,22,03,51,15.60
2018,08,22,03,52,15.60
2018,08,22,03,53,15.70
2018,08,22,03,54,15.70
2018,08,22,03,55,15.80
2018,08,22,03,56,15.90
2018,08,22,03,57,16.10
2018,08,22,03,58,16.10
2018,08,22,03,59,16.20
2018,08,22,04,00,16.30
2018,08,22,04,01,16.30
2018,08,22,04,02,16.30
2018,08,22,04,03,16.30
2018,08,22,04,04,16.30
2018,08,22,04,05,16.20
2018,08,22,04,06,16.20
2018,08,22,04,07,16.10
2018,08,22,04,08,15.90
2018,08,22,04,09,15.70
2018,08,22,04,10,15.50
2018,08,22,04,11,15.30
2018,08,22,04,12,15.10
2018,08,22,04,13,14.90
2018,08,22,04,14,14.90
2018,08,22,04,15,14.80
2018,08,22,04,16,14.70
2018,08,22,04,17,14.70
2018,08,22,04,18,14.60
2018,08,22,04,19,14.60
2018,08,22,04,20,14.60
2018,08,22,04,21,14.50
2018,08,22,04,22,14.40
2018,08,22,04,23,14.40
2018,08,22,04,24,14.50
2018,08,22,04,25,14.60
2018,08,22,04,26,14.70
2018,08,22,04,27,14.80
2018,08,22,04,28,14.80
2018,08,22,04,29,15.00
2018,08,22,04,30,15.10
2018,08,22,04,31,15.00
2018,08,22,04,32,14.90
2018,08,22,04,33,14.70
2018,08,22,04,34,14.60
2018,08,22,04,35,14.40
2018,08,22,04,36,14.30
2018,08,22,04,37,14.30
2018,08,22,04,38,14.40
2018,08,22,04,39,14.40
2018,08,22,04,40,14.50
2018,08,22,04,41,14.50
2018,08,22,04,42,14.50
2018,08,22,04,43,14.40
2018,08,22,04,44,14.40
2018,08,22,04,45,14.50
2018,08,22,04,46,14.60
2018,08,22,04,47,14.60
2018,08,22,04,48,14.70
2018,08,22,04,49,14.80
2018,08,22,04,50,14.80
2018,08,22,04,51,14.80
2018,08,22,04,52,14.90
2018,08,22,04,53,15.00
2018,08,22,04,54,15.10
2018,08,22,04,55,15.20
2018,08,22,04,56,15.20
2018,08,22,04,57,15.20
2018,08,22,04,58,15.20
2018,08,22,04,59,15.20
2018,08,22,05,00,15.20
2018,08,22,05,01,15.20
2018,08,22,05,02,15.10
2018,08,22,05,03,15.00
2018,08,22,05,04,14.90
2018,08,22,05,05,14.80
2018,08,22,05,06,14.60
2018,08,22,05,07,14.50
2018,08,22,05,08,14.40
2018,08,22,05,09,14.30
2018,08,22,05,10,14.20
2018,08,22,05,11,14.10
2018,08,22,05,12,14.00
2018,08,22,05,13,13.90
2018,08,22,05,14,13.90
2018,08,22,05,15,13.90
2018,08,22,05,16,13.90
2018,08,22,05,17,13.80
2018,08,22,05,18,13.80
2018,08,22,05,19,13.80
2018,08,22,05,20,13.80
2018,08,22,05,21,13.80
2018,08,22,05,22,13.80
2018,08,22,05,23,13.80
2018,08,22,05,24,13.80
2018,08,22,05,25,13.80
2018,08,22,05,26,13.80
2018,08,22,05,27,13.90
2018,08,22,05,28,13.90
2018,08,22,05,29,14.00
2018,08,22,05,30,14.10
2018,08,22,05,31,14.20
2018,08,22,05,32,14.30
2018,08,22,05,33,14.40
2018,08,22,05,34,14.50
2018,08,22,05,35,14.60
2018,08,22,05,36,14.60
2018,08,22,05,37,14.60
2018,08,22,05,38,14.50
2018,08,22,05,39,14.50
2018,08,22,05,40,14.50
2018,08,22,05,41,14.40
2018,08,22,05,42,14.40
2018,08,22,05,43,14.40
2018,08,22,05,44,14.40
2018,08,22,05,45,14.40
2018,08,22,05,46,14.50
2018,08,22,05,47,14.50
2018,08,22,05,48,14.60
2018,08,22,05,49,14.60
2018,08,22,05,50,14.60
2018,08,22,05,51,14.60
2018,08,22,05,52,14.70
2018,08,22,05,53,14.70
2018,08,22,05,54,14.80
2018,08,22,05,55,14.90
2018,08,22,05,56,15.00
2018,08,22,05,57,15.00
2018,08,22,05,58,15.10
2018,08,22,05,59,15.10
2018,08,22,06,00,15.20
2018,08,22,06,01,15.20
2018,08,22,06,02,15.30
2018,08,22,06,03,15.30
2018,08,22,06,04,15.30
2018,08,22,06,05,15.30
2018,08,22,06,06,15.40
2018,08,22,06,07,15.40
2018,08,22,06,08,15.40
2018,08,22,06,09,15.40
2018,08,22,06,10,15.40
2018,08,22,06,11,15.30
2018,08,22,06,12,15.30
2018,08,22,06,13,15.30
2018,08,22,06,14,15.30
2018,08,22,06,15,15.30
2018,08,22,06,16,15.30
2018,08,22,06,17,15.30
2018,08,22,06,18,15.40
2018,08,22,06,19,15.30
2018,08,22,06,20,15.30
2018,08,22,06,21,15.30
2018,08,22,06,22,15.20
2018,08,22,06,23,15.10
2018,08,22,06,24,15.00
2018,08,22,06,25,14.80
2018,08,22,06,26,14.70
2018,08,22,06,27,14.70
2018,08,22,06,28,14.60
2018,08,22,06,29,14.70
2018,08,22,06,30,14.70
2018,08,22,06,31,14.80
2018,08,22,06,32,14.80
2018,08,22,06,33,14.80
2018,08,22,06,34,14.90
2018,08,22,06,35,14.90
2018,08,22,06,36,14.90
2018,08,22,06,37,14.90
2018,08,22,06,38,15.00
2018,08,22,06,39,15.10
2018,08,22,06,40,15.20
2018,08,22,06,41,15.30
2018,08,22,06,42,15.40
2018,08,22,06,43,15.50
2018,08,22,06,44,15.60
2018,08,22,06,45,15.60
2018,08,22,06,46,15.60
2018,08,22,06,47,15.70
2018,08,22,06,48,15.70
2018,08,22,06,49,15.80
2018,08,22,06,50,15.80
2018,08,22,06,51,15.80
2018,08,22,06,52,15.80
2018,08,22,06,53,15.70
2018,08,22,06,54,15.70
2018,08,22,06,55,15.60
2018,08,22,06,56,15.60
2018,08,22,06,57,15.50
2018,08,22,06,58,15.40
2018,08,22,06,59,15.40
2018,08,22,07,00,15.30
2018,08,22,07,01,15.20
2018,08,22,07,02,15.10
2018,08,22,07,03,14.90
2018,08,22,07,04,14.80
2018,08,22,07,05,14.70
2018,08,22,07,06,14.60
2018,08,22,07,07,14.50
2018,08,22,07,08,14.50
2018,08,22,07,09,14.40
2018,08,22,07,10,14.40
2018,08,22,07,11,14.30
2018,08,22,07,12,14.30
2018,08,22,07,13,14.20
2018,08,22,07,14,14.20
2018,08,22,07,15,14.20
2018,08,22,07,16,14.20
2018,08,22,07,17,14.20
2018,08,22,07,18,14.20
2018,08,22,07,19,14.20
2018,08,22,07,20,14.20
2018,08,22,07,21,14.20
2018,08,22,07,22,14.20
2018,08,22,07,23,14.20
2018,08,22,07,24,14.20
2018,08,22,07,25,14.20
2018,08,22,07,26,14.20
2018,08,22,07,27,14.20
2018,08,22,07,28,14.20
2018,08,22,07,29,14.20
2018,08,22,07,30,14.20
2018,08,22,07,31,14.20
2018,08,22,07,32,14.10
2018,08,22,07,33,14.10
2018,08,22,07,34,14.10
2018,08,22,07,35,14.10
2018,08,22,07,36,14.10
2018,08,22,07,37,14.10
2018,08,22,07,38,14.10
2018,08,22,07,39,14.20
2018,08,22,07,40,14.20
2018,08,22,07,41,14.30
2018,08,22,07,42,14.30
2018,08,22,07,43,14.40
2018,08,22,07,44,14.50
2018,08,22,07,45,14.50
2018,08,22,07,46,14.50
2018,08,22,07,47,14.60
2018,08,22,07,48,14.60
2018,08,22,07,49,14.60
2018,08,22,07,50,14.70
2018,08,22,07,51,14.70
2018,08,22,07,52,14.80
2018,08,22,07,53,14.80
2018,08,22,07,54,14.80
2018,08,22,07,55,14.80
2018,08,22,07,56,14.80
2018,08,22,07,57,14.80
2018,08,22,07,58,14.80
2018,08,22,07,59,14.80
2018,08,22,08,00,14.90
2018,08,22,08,01,14.90
2018,08,22,08,02,14.90
2018,08,22,08,03,14.90
2018,08,22,08,04,14.90
2018,08,22,08,05,14.90
2018,08,22,08,06,14.90
2018,08,22,08,07,14.80
2018,08,22,08,08,14.80
2018,08,22,08,09,14.70
2018,08,22,08,10,14.70
2018,08,22,08,11,14.60
2018,08,22,08,12,14.60
2018,08,22,08,13,14.50
2018,08,22,08,14,14.50
2018,08,22,08,15,14.40
2018,08,22,08,16,14.30
2018,08,22,08,17,14.30
2018,08,22,08,18,14.30
2018,08,22,08,19,14.30
2018,08,22,08,20,14.30
2018,08,22,08,21,14.30
2018,08,22,08,22,14.30
2018,08,22,08,23,14.30
2018,08,22,08,24,14.40
2018,08,22,08,25,14.40
2018,08,22,08,26,14.40
2018,08,22,08,27,14.40
2018,08,22,08,28,14.40
2018,08,22,08,29,14.50
2018,08,22,08,30,14.50
2018,08,22,08,31,14.60
2018,08,22,08,32,14.60
2018,08,22,08,33,14.70
2018,08,22,08,34,14.80
2018,08,22,08,35,14.90
2018,08,22,08,36,14.90
2018,08,22,08,37,15.00
2018,08,22,08,38,15.00
2018,08,22,08,39,15.10
2018,08,22,08,40,15.10
2018,08,22,08,41,15.10
2018,08,22,08,42,15.10
2018,08,22,08,43,15.10
2018,08,22,08,44,15.00
2018,08,22,08,45,15.00
2018,08,22,08,46,15.00
2018,08,22,08,47,15.00
2018,08,22,08,48,14.90
2018,08,22,08,49,14.90
2018,08,22,08,50,14.90
2018,08,22,08,51,14.90
2018,08,22,08,52,14.90
2018,08,22,08,53,14.90
2018,08,22,08,54,14.80
2018,08,22,08,55,14.80
2018,08,22,08,56,14.80
2018,08,22,08,57,14.80
2018,08,22,08,58,14.70
2018,08,22,08,59,14.60
2018,08,22,09,00,14.50
2018,08,22,09,01,14.40
2018,08,22,09,02,14.20
2018,08,22,09,03,14.10
2018,08,22,09,04,13.90
2018,08,22,09,05,13.80
2018,08,22,09,06,13.70
2018,08,22,09,07,13.70
2018,08,22,09,08,13.60
2018,08,22,09,09,13.40
2018,08,22,09,10,13.30
2018,08,22,09,11,13.20
2018,08,22,09,12,13.10
2018,08,22,09,13,13.00
2018,08,22,09,14,12.90
2018,08,22,09,15,12.80
2018,08,22,09,16,12.70
2018,08,22,09,17,12.70
2018,08,22,09,18,12.70
2018,08,22,09,19,12.60
2018,08,22,09,20,12.60
2018,08,22,09,21,12.60
2018,08,22,09,22,12.60
2018,08,22,09,23,12.60
2018,08,22,09,24,12.60
2018,08,22,09,25,12.50
2018,08,22,09,26,12.50
2018,08,22,09,27,12.50
2018,08,22,09,28,12.50
2018,08,22,09,29,12.50
2018,08,22,09,30,12.50
2018,08,22,09,31,12.50
2018,08,22,09,32,12.50
2018,08,22,09,33,12.50
2018,08,22,09,34,12.50
2018,08,22,09,35,12.50
2018,08,22,09,36,12.50
2018,08,22,09,37,12.50
2018,08,22,09,38,12.60
2018,08,22,09,39,12.60
2018,08,22,09,40,12.60
2018,08,22,09,41,12.70
2018,08,22,09,42,12.70
2018,08,22,09,43,12.70
2018,08,22,09,44,12.80
2018,08,22,09,45,12.80
2018,08,22,09,46,12.80
2018,08,22,09,47,12.80
2018,08,22,09,48,12.80
2018,08,22,09,49,12.90
2018,08,22,09,50,12.90
2018,08,22,09,51,12.90
2018,08,22,09,52,13.00
2018,08,22,09,53,13.00
2018,08,22,09,54,13.00
2018,08,22,09,55,13.00
2018,08,22,09,56,13.10
2018,08,22,09,57,13.10
2018,08,22,09,58,13.10
2018,08,22,09,59,13.20
2018,08,22,10,00,13.20
2018,08,22,10,01,13.30
2018,08,22,10,02,13.30
2018,08,22,10,03,13.30
2018,08,22,10,04,13.40
2018,08,22,10,05,13.40
2018,08,22,10,06,13.50
2018,08,22,10,07,13.50
2018,08,22,10,08,13.60
2018,08,22,10,09,13.60
2018,08,22,10,10,13.60
2018,08,22,10,11,13.60
2018,08,22,10,12,13.60
2018,08,22,10,13,13.50
2018,08,22,10,14,13.50
2018,08,22,10,15,13.50
2018,08,22,10,16,13.50
2018,08,22,10,17,13.40
2018,08,22,10,18,13.40
2018,08,22,10,19,13.30
2018,08,22,10,20,13.30
2018,08,22,10,21,13.20
2018,08,22,10,22,13.10
2018,08,22,10,23,13.10
2018,08,22,10,24,13.00
2018,08,22,10,25,13.00
2018,08,22,10,26,12.90
2018,08,22,10,27,12.90
2018,08,22,10,28,12.90
2018,08,22,10,29,12.80
2018,08,22,10,30,12.80
2018,08,22,10,31,12.80
2018,08,22,10,32,12.80
2018,08,22,10,33,12.80
2018,08,22,10,34,12.70
2018,08,22,10,35,12.70
2018,08,22,10,36,12.70
2018,08,22,10,37,12.70
2018,08,22,10,38,12.60
2018,08,22,10,39,12.60
2018,08,22,10,40,12.60
2018,08,22,10,41,12.60
2018,08,22,10,42,12.60
2018,08,22,10,43,12.60
2018,08,22,10,44,12.60
2018,08,22,10,45,12.50
2018,08,22,10,46,12.50
2018,08,22,10,47,12.50
2018,08,22,10,48,12.50
2018,08,22,10,49,12.50
2018,08,22,10,50,12.50
2018,08,22,10,51,12.50
2018,08,22,10,52,12.60
2018,08,22,10,53,12.60
2018,08,22,10,54,12.70
2018,08,22,10,55,12.80
2018,08,22,10,56,12.80
2018,08,22,10,57,12.90
2018,08,22,10,58,13.00
2018,08,22,10,59,13.10
2018,08,22,11,00,13.20
2018,08,22,11,01,13.20
2018,08,22,11,02,13.20
2018,08,22,11,03,13.30
2018,08,22,11,04,13.30
2018,08,22,11,05,13.30
2018,08,22,11,06,13.30
2018,08,22,11,07,13.40
2018,08,22,11,08,13.40
2018,08,22,11,09,13.30
2018,08,22,11,10,13.30
2018,08,22,11,11,13.30
2018,08,22,11,12,13.40
2018,08,22,11,13,13.40
2018,08,22,11,14,13.50
2018,08,22,11,15,13.60
2018,08,22,11,16,13.60
2018,08,22,11,17,13.70
2018,08,22,11,18,13.70
2018,08,22,11,19,13.60
2018,08,22,11,20,13.60
2018,08,22,11,21,13.60
2018,08,22,11,22,13.50
2018,08,22,11,23,13.40
2018,08,22,11,24,13.30
2018,08,22,11,25,13.20
2018,08,22,11,26,13.20
2018,08,22,11,27,13.10
2018,08,22,11,28,13.00
2018,08,22,11,29,13.00
2018,08,22,11,30,13.00
2018,08,22,11,31,12.90
2018,08,22,11,32,12.90
2018,08,22,11,33,12.90
2018,08,22,11,34,12.80
2018,08,22,11,35,12.80
2018,08,22,11,36,12.80
2018,08,22,11,37,12.80
2018,08,22,11,38,12.70
2018,08,22,11,39,12.70
2018,08,22,11,40,12.70
2018,08,22,11,41,12.70
2018,08,22,11,42,12.70
2018,08,22,11,43,12.70
2018,08,22,11,44,12.70
2018,08,22,11,45,12.60
2018,08,22,11,46,12.60
2018,08,22,11,47,12.60
2018,08,22,11,48,12.60
2018,08,22,11,49,12.60
2018,08,22,11,50,12.60
2018,08,22,11,51,12.60
2018,08,22,11,52,12.60
2018,08,22,11,53,12.60
2018,08,22,11,54,12.70
2018,08,22,11,55,12.90
2018,08,22,11,56,13.00
2018,08,22,11,57,13.10
2018,08,22,11,58,13.20
2018,08,22,11,59,13.20
2018,08,22,12,00,13.20
2018,08,22,12,01,13.20
2018,08,22,12,02,13.10
2018,08,22,12,03,13.10
2018,08,22,12,04,13.10
2018,08,22,12,05,13.00
2018,08,22,12,06,13.00
2018,08,22,12,07,12.90
2018,08,22,12,08,12.90
2018,08,22,12,09,12.90
2018,08,22,12,10,12.80
2018,08,22,12,11,12.80
2018,08,22,12,12,12.70
2018,08,22,12,13,12.70
2018,08,22,12,14,12.70
2018,08,22,12,15,12.60
2018,08,22,12,16,12.60
2018,08,22,12,17,12.60
2018,08,22,12,18,12.60
2018,08,22,12,19,12.60
2018,08,22,12,20,12.50
2018,08,22,12,21,12.50
2018,08,22,12,22,12.50
2018,08,22,12,23,12.50
2018,08,22,12,24,12.50
2018,08,22,12,25,12.50
2018,08,22,12,26,12.50
2018,08,22,12,27,12.50
2018,08,22,12,28,12.50
2018,08,22,12,29,12.50
2018,08,22,12,30,12.40
2018,08,22,12,31,12.40
2018,08,22,12,32,12.40
2018,08,22,12,33,12.40
2018,08,22,12,34,12.50
2018,08,22,12,35,12.40
2018,08,22,12,36,12.50
2018,08,22,12,37,12.50
2018,08,22,12,38,12.50
2018,08,22,12,39,12.50
2018,08,22,12,40,12.50
2018,08,22,12,41,12.50
2018,08,22,12,42,12.50
2018,08,22,12,43,12.50
2018,08,22,12,44,12.50
2018,08,22,12,45,12.50
2018,08,22,12,46,12.50
2018,08,22,12,47,12.50
2018,08,22,12,48,12.50
2018,08,22,12,49,12.50
2018,08,22,12,50,12.50
2018,08,22,12,51,12.50
2018,08,22,12,52,12.50
2018,08,22,12,53,12.50
2018,08,22,12,54,12.50
2018,08,22,12,55,12.50
2018,08,22,12,56,12.50
2018,08,22,12,57,12.50
2018,08,22,12,58,12.50
2018,08,22,12,59,12.50
2018,08,22,13,00,12.50
2018,08,22,13,01,12.40
2018,08,22,13,02,12.40
2018,08,22,13,03,12.40
2018,08,22,13,04,12.40
2018,08,22,13,05,12.40
2018,08,22,13,06,12.40
2018,08,22,13,07,12.40
2018,08,22,13,08,12.40
2018,08,22,13,09,12.40
2018,08,22,13,10,12.40
2018,08,22,13,11,12.40
2018,08,22,13,12,12.40
2018,08,22,13,13,12.40
2018,08,22,13,14,12.40
2018,08,22,13,15,12.40
2018,08,22,13,16,12.40
2018,08,22,13,17,12.40
2018,08,22,13,18,12.50
2018,08,22,13,19,12.50
2018,08,22,13,20,12.50
2018,08,22,13,21,12.60
2018,08,22,13,22,12.60
2018,08,22,13,23,12.60
2018,08,22,13,24,12.60
2018,08,22,13,25,12.60
2018,08,22,13,26,12.60
2018,08,22,13,27,12.60
2018,08,22,13,28,12.60
2018,08,22,13,29,12.60
2018,08,22,13,30,12.60
2018,08,22,13,31,12.60
2018,08,22,13,32,12.60
2018,08,22,13,33,12.60
2018,08,22,13,34,12.60
2018,08,22,13,35,12.60
2018,08,22,13,36,12.60
2018,08,22,13,37,12.60
2018,08,22,13,38,12.60
2018,08,22,13,39,12.50
2018,08,22,13,40,12.50
2018,08,22,13,41,12.50
2018,08,22,13,42,12.50
2018,08,22,13,43,12.50
2018,08,22,13,44,12.50
2018,08,22,13,45,12.50
2018,08,22,13,46,12.50
2018,08,22,13,47,12.50
2018,08,22,13,48,12.50
2018,08,22,13,49,12.50
2018,08,22,13,50,12.50
2018,08,22,13,51,12.50
2018,08,22,13,52,12.50
2018,08,22,13,53,12.60
2018,08,22,13,54,12.60
2018,08,22,13,55,12.60
2018,08,22,13,56,12.60
2018,08,22,13,57,12.60
2018,08,22,13,58,12.60
2018,08,22,13,59,12.60
2018,08,22,14,00,12.60
2018,08,22,14,01,12.60
2018,08,22,14,02,12.60
2018,08,22,14,03,12.70
2018,08,22,14,04,12.70
2018,08,22,14,05,12.70
2018,08,22,14,06,12.70
2018,08,22,14,07,12.70
2018,08,22,14,08,12.70
2018,08,22,14,09,12.70
2018,08,22,14,10,12.70
2018,08,22,14,11,12.70
2018,08,22,14,12,12.70
2018,08,22,14,13,12.70
2018,08,22,14,14,12.70
2018,08,22,14,15,12.70
2018,08,22,14,16,12.70
2018,08,22,14,17,12.70
2018,08,22,14,18,12.70
2018,08,22,14,19,12.70
2018,08,22,14,20,12.70
2018,08,22,14,21,12.70
2018,08,22,14,22,12.70
2018,08,22,14,23,12.70
2018,08,22,14,24,12.70
2018,08,22,14,25,12.70
2018,08,22,14,26,12.70
2018,08,22,14,27,12.70
2018,08,22,14,28,12.80
2018,08,22,14,29,12.80
2018,08,22,14,30,12.80
2018,08,22,14,31,12.80
2018,08,22,14,32,12.80
2018,08,22,14,33,12.80
2018,08,22,14,34,12.80
2018,08,22,14,35,12.90
2018,08,22,14,36,12.90
2018,08,22,14,37,12.90
2018,08,22,14,38,12.90
2018,08,22,14,39,13.00
2018,08,22,14,40,13.00
2018,08,22,14,41,13.00
2018,08,22,14,42,13.00
2018,08,22,14,43,13.00
2018,08,22,14,44,13.00
2018,08,22,14,45,13.00
2018,08,22,14,46,13.00
2018,08,22,14,47,13.00
2018,08,22,14,48,13.10
2018,08,22,14,49,13.10
2018,08,22,14,50,13.10
2018,08,22,14,51,13.10
2018,08,22,14,52,13.10
2018,08,22,14,53,13.00
2018,08,22,14,54,13.00
2018,08,22,14,55,13.00
2018,08,22,14,56,13.00
2018,08,22,14,57,13.00
2018,08,22,14,58,13.00
2018,08,22,14,59,12.90
2018,08,22,15,00,12.90
2018,08,22,15,01,12.90
2018,08,22,15,02,12.90
2018,08,22,15,03,12.90
2018,08,22,15,04,12.90
2018,08,22,15,05,12.90
2018,08,22,15,06,12.90
2018,08,22,15,07,12.90
2018,08,22,15,08,12.90
2018,08,22,15,09,13.00
2018,08,22,15,10,13.00
2018,08,22,15,11,13.00
2018,08,22,15,12,13.10
2018,08,22,15,13,13.10
2018,08,22,15,14,13.10
2018,08,22,15,15,13.10
2018,08,22,15,16,13.10
2018,08,22,15,17,13.10
2018,08,22,15,18,13.10
2018,08,22,15,19,13.10
2018,08,22,15,20,13.10
2018,08,22,15,21,13.10
2018,08,22,15,22,13.10
2018,08,22,15,23,13.00
2018,08,22,15,24,13.00
2018,08,22,15,25,13.00
2018,08,22,15,26,13.00
2018,08,22,15,27,13.00
2018,08,22,15,28,13.00
2018,08,22,15,29,13.00
2018,08,22,15,30,13.00
2018,08,22,15,31,13.00
2018,08,22,15,32,13.00
2018,08,22,15,33,13.00
2018,08,22,15,34,12.90
2018,08,22,15,35,12.90
2018,08,22,15,36,12.90
2018,08,22,15,37,12.90
2018,08,22,15,38,12.90
2018,08,22,15,39,12.90
2018,08,22,15,40,12.80
2018,08,22,15,41,12.80
2018,08,22,15,42,12.80
2018,08,22,15,43,12.80
2018,08,22,15,44,12.80
2018,08,22,15,45,12.80
2018,08,22,15,46,12.80
2018,08,22,15,47,12.80
2018,08,22,15,48,12.70
2018,08,22,15,49,12.70
2018,08,22,15,50,12.70
2018,08,22,15,51,12.70
2018,08,22,15,52,12.70
2018,08,22,15,53,12.70
2018,08,22,15,54,12.70
2018,08,22,15,55,12.70
2018,08,22,15,56,12.80
2018,08,22,15,57,12.80
2018,08,22,15,58,12.80
2018,08,22,15,59,12.80
2018,08,22,16,00,12.80
2018,08,22,16,01,12.80
2018,08,22,16,02,12.80
2018,08,22,16,03,13.10
2018,08,22,16,04,14.20
2018,08,22,16,05,15.20
2018,08,22,16,06,15.10
2018,08,22,16,07,14.60
2018,08,22,16,08,14.20
2018,08,22,16,09,13.90
2018,08,22,16,10,13.70
2018,08,22,16,11,13.60
2018,08,22,16,12,13.40
2018,08,22,16,13,13.60
2018,08,22,16,14,13.60
2018,08,22,16,15,13.50
2018,08,22,16,16,13.50
2018,08,22,16,17,13.40
2018,08,22,16,18,13.30
2018,08,22,16,19,13.20
2018,08,22,16,20,13.10
2018,08,22,16,21,13.10
2018,08,22,16,22,13.00
2018,08,22,16,23,13.00
2018,08,22,16,24,13.00
2018,08,22,16,25,12.90
2018,08,22,16,26,12.90
2018,08,22,16,27,12.90
2018,08,22,16,28,12.90
2018,08,22,16,29,12.90
2018,08,22,16,30,12.90
2018,08,22,16,31,12.90
2018,08,22,16,32,12.90
2018,08,22,16,33,12.90
2018,08,22,16,34,12.90
2018,08,22,16,35,12.90
2018,08,22,16,36,12.90
2018,08,22,16,37,13.00
2018,08,22,16,38,13.00
2018,08,22,16,39,13.00
2018,08,22,16,40,13.00
2018,08,22,16,41,12.90
2018,08,22,16,42,12.90
2018,08,22,16,43,12.90
2018,08,22,16,44,12.90
2018,08,22,16,45,12.90
2018,08,22,16,46,12.80
2018,08,22,16,47,12.80
2018,08,22,16,48,12.80
2018,08,22,16,49,12.80
2018,08,22,16,50,12.80
2018,08,22,16,51,12.80
2018,08,22,16,52,12.90
2018,08,22,16,53,12.90
2018,08,22,16,54,13.00
2018,08,22,16,55,13.10
2018,08,22,16,56,13.20
2018,08,22,16,57,13.10
2018,08,22,16,58,13.00
2018,08,22,16,59,13.00
2018,08,22,17,00,13.00
2018,08,22,17,01,13.00
2018,08,22,17,02,13.10
2018,08,22,17,03,13.20
2018,08,22,17,04,13.20
2018,08,22,17,05,13.10
2018,08,22,17,06,13.00
2018,08,22,17,07,12.90
2018,08,22,17,08,12.80
2018,08,22,17,09,12.60
2018,08,22,17,10,12.60
2018,08,22,17,11,12.50
2018,08,22,17,12,12.40
2018,08,22,17,13,12.40
2018,08,22,17,14,12.30
2018,08,22,17,15,12.30
2018,08,22,17,16,12.30
2018,08,22,17,17,12.30
2018,08,22,17,18,12.30
2018,08,22,17,19,12.30